This is the latest recevied weather packets stored in our database for station/object DG8SF-13. If no packets are shown the sender has not sent any weather packets the latest 10 day(s).
| Time | Temp. | Humidity | Pressure | Rain* | Wind** | Luminosity | Snow |
|---|---|---|---|---|---|---|---|
| 1777543030 | 12.78° C | 31% | 1026 hPa | 0 mm | - | - | - |
| 1777542716 | 12.78° C | 31% | 1026.1 hPa | 0 mm | - | - | - |
| 1777542405 | 13.33° C | 30% | 1026.1 hPa | 0 mm | - | - | - |
| 1777542092 | 13.33° C | 31% | 1026 hPa | 0 mm | - | - | - |
| 1777541782 | 12.78° C | 32% | 1026 hPa | 0 mm | - | - | - |
| 1777541468 | 12.22° C | 33% | 1026.1 hPa | 0 mm | - | - | - |
| 1777541157 | 12.22° C | 33% | 1026.2 hPa | 0 mm | - | - | - |
| 1777540844 | 12.22° C | 32% | 1026.2 hPa | 0 mm | - | - | - |
| 1777540533 | 11.67° C | 33% | 1026.2 hPa | 0 mm | - | - | - |
| 1777540221 | 11.67° C | 33% | 1026.2 hPa | 0 mm | - | - | - |
| 1777539910 | 11.67° C | 33% | 1026.1 hPa | 0 mm | - | - | - |
| 1777539596 | 11.11° C | 34% | 1026.1 hPa | 0 mm | - | - | - |
| 1777539286 | 11.11° C | 34% | 1026.3 hPa | 0 mm | - | - | - |
| 1777538972 | 11.11° C | 33% | 1026.3 hPa | 0 mm | - | - | - |
| 1777538660 | 11.11° C | 34% | 1026.2 hPa | 0 mm | - | - | - |
| 1777538347 | 11.11° C | 34% | 1026.3 hPa | 0 mm | - | - | - |
| 1777538038 | 10.56° C | 34% | 1026.3 hPa | 0 mm | - | - | - |
| 1777537722 | 10.56° C | 34% | 1026.2 hPa | 0 mm | - | - | - |
| 1777537414 | 10° C | 35% | 1026.1 hPa | 0 mm | - | - | - |
| 1777537100 | 10° C | 35% | 1026.2 hPa | 0 mm | - | - | - |
| 1777536789 | 10° C | 35% | 1026 hPa | 0 mm | - | - | - |
| 1777536475 | 9.44° C | 35% | 1026.1 hPa | 0 mm | - | - | - |
| 1777536165 | 10° C | 35% | 1026.1 hPa | 0 mm | - | - | - |
| 1777535852 | 9.44° C | 36% | 1026 hPa | 0 mm | - | - | - |
| 1777535539 | 8.89° C | 36% | 1026.1 hPa | 0 mm | - | - | - |
* Rain latest hour (hover to see other rain measurements)
** Current wind speed in m/s (hover to see current wind gust speed)